Regional Weather Roundup
Issued by NWS

Home | Current Version | Previous Version | Graphics & Text | Print | Product List | Glossary On
Versions: 1 2 3 4 5 6 7 8 9 10 11 12 13 14 15 16 17 18 19 20 21 22 23 24 25 26 27 28 29 30 31 32 33 34 35 36 37 38 39 40 41 42 43 44 45 46 47 48 49 50
000
ASUS45 KCYS 241410
RWRWY

WYOMING REGIONAL WEATHER ROUNDUP
NATIONAL WEATHER SERVICE CHEYENNE WY
800 AM MDT THU JUL 24 2014

NOTE:  "FAIR" INDICATES FEW OR NO CLOUDS BELOW 12,000 FEET
WITH NO SIGNIFICANT WEATHER AND/OR OBSTRUCTIONS TO VISIBILITY.

WYZ001-241500-
YELLOWSTONE NATIONAL PARK

CITY           SKY/WX    TMP DP  RH WIND       PRES   REMARKS
LK YELLOWSTONE   N/A     54  44  69 CALM      30.26S
W YELLOWSTONE  NOT AVBL

$$
WYZ002>013-054>058-071-098>099-241500-
NORTHERN WYOMING

CITY           SKY/WX    TMP DP  RH WIND       PRES   REMARKS
JACKSON        SUNNY     54  43  66 CALM      30.18R
CODY           NOT AVBL
GREYBULL       SUNNY     79  42  26 CALM      29.89R
WORLAND        SUNNY     78  47  33 CALM      29.91R
SHERIDAN       MOSUNNY   86  48  26 S14       29.83S
BUFFALO        MOSUNNY   89  37  16 SW29G39   29.94R
GILLETTE       PTSUNNY   79  46  31 SW12      29.91R
HULETT         FAIR      79  54  41 MISG      29.91
NEWCASTLE      FAIR      79  50  36 SE8       29.95

$$
WYZ014>020-022>026-101>103-241500-
CENTRAL WYOMING

CITY           SKY/WX    TMP DP  RH WIND       PRES   REMARKS
BIG PINEY      MOSUNNY   59  50  72 CALM      30.23R
PINEDALE       MOSUNNY   57  50  77 CALM      30.24R
DUBOIS         FAIR      63  37  39 CALM      30.18F
LANDER         SUNNY     81  42  25 CALM      30.06R
RIVERTON       SUNNY     76  41  28 S10       30.05S
CASPER         PTSUNNY   76  41  28 SW14      30.06R
DOUGLAS        MOSUNNY   80  46  30 N8        30.03F

$$
WYZ021-027>030-104>119-241500-
SOUTHERN WYOMING

CITY           SKY/WX    TMP DP  RH WIND       PRES   REMARKS
EVANSTON       PTSUNNY   71  40  32 S15       30.25R
KEMMERER       MOSUNNY   64  37  36 SW5       30.25S
FORT BRIDGER   FAIR      75  37  24 SW20G28   30.26S
ROCK SPRINGS   PTSUNNY   76  40  27 S20       30.23R
DIXON          FAIR      74  42  31 S5        30.28S
RAWLINS        SUNNY     79  37  22 SW21G32   30.23F
SARATOGA       FAIR      70  41  35 SE14      30.28R
LARAMIE        PTSUNNY   72  43  35 SW14      30.28S
CHEYENNE       PTSUNNY   78  45  30 W13G24    30.16F
TORRINGTON     MOSUNNY   70  63  78 SE5       30.00R
PINE BLUFFS    FAIR      70  59  68 SW6       30.11R

$$


USA.gov is the U.S. government's official web portal to all federal, state and local government web resources and services.